Location: Trzemesnia
(49.4400°N, 19.5900°E)
Time: 17:51:36
(UTC+01:00)

ISS - Visible Passes

Search period start: 14 December 2018 00:00
Search period end: 24 December 2018 00:00
Orbit: 401 x 408 km, 51.6° (Epoch: 15 December)

Date Brightness Start Highest point End Pass type
(mag) Time Alt. Az. Time Alt. Az. Time Alt. Az.
14 Dec -0.4 17:16:57 10° WSW 17:17:59 11° SW 17:19:01 10° SSW visible
15 Dec -0.7 16:23:45 10° W 16:26:05 18° SW 16:28:25 10° S visible
23 Dec -0.5 06:14:28 10° SSE 06:16:03 13° SE 06:17:37 10° ESE visible
